Weather History for KMDW - January, 2013

Change the Weather History Date:

Thursday, January 3, 2013

  Actual Average Record
Temperature  
Mean Temperature 25 °F 25 °F  
Max Temperature 30 °F 32 °F 60 °F (1950)
Min Temperature 19 °F 19 °F -12 °F (1979)
Degree Days  
Heating Degree Days 40 40  
Month to date heating degree days 129 119  
Since 1 July heating degree days 2092 2370  
Cooling Degree Days 0 0  
Month to date cooling degree days 0 0  
Year to date cooling degree days 0 0  
Moisture  
Dew Point 18 °F    
Average Humidity 69    
Maximum Humidity 78    
Minimum Humidity 55    
Precipitation  
Precipitation T in 0.07 in 0.79 in (1971)
Month to date precipitation T 0.23  
Year to date precipitation T 0.23  
Sea Level Pressure  
Sea Level Pressure 30.21 in    
Wind  
Wind Speed 11 mph (WSW)    
Max Wind Speed 16 mph    
Max Gust Speed 22 mph    
Visibility 9 miles    
Events Snow    
T = Trace of Precipitation, MM = Missing Value Source: NWS Daily Summary

Daily Weather History Graph

Daily Weather History Graph

Search for Another Location

Airport or City:

Trip Planner

Search our weather history database for the weather conditions in past years. The results will help you decide how hot, cold, wet, or windy it might be!

Date:

Astronomy

Jan. 03, 2013 Rise Set
Actual Time 7:18 AM CST 4:33 PM CST
Civil Twilight 6:47 AM CST 5:04 PM CST
Nautical Twilight 6:12 AM CST 5:39 PM CST
Astronomical Twilight 5:38 AM CST 6:13 PM CST
Moon 11:14 PM CST (1/3) 10:24 AM CST (1/3)
Length of Visible Light 10h 17m
Length of Day
9h 14m
Waning Gibbous, 65% of the Moon is Illuminated
Jan 3
Waning Gibbous
Jan 4
Last Quarter
Jan 11
New
Jan 18
First Quarter
Jan 26
Full

Hourly Weather History & Observations

Time (CST) Temp. Windchill Dew Point Humidity Pressure Visibility Wind Dir Wind Speed Gust Speed Precip Events Conditions
12:51 AM 21.9 °F 11.7 °F 12.0 °F 66% 30.14 in 10.0 mi SW 9.2 mph - 0.00 in Snow Light Snow
1:51 AM 24.1 °F 16.0 °F 14.0 °F 65% 30.15 in 9.0 mi SW 6.9 mph - 0.00 in Snow Light Snow
2:15 AM 24.8 °F 16.1 °F 14.0 °F 64% 30.10 in 10.0 mi SW 8.1 mph - 0.00 in   Overcast
2:51 AM 25.0 °F 14.8 °F 16.0 °F 69% 30.15 in 9.0 mi WSW 10.4 mph - 0.00 in Snow Light Snow
3:51 AM 26.1 °F 15.6 °F 18.0 °F 71% 30.14 in 10.0 mi WSW 11.5 mph - 0.00 in   Mostly Cloudy
4:51 AM 26.1 °F 16.2 °F 19.0 °F 75% 30.14 in 10.0 mi WSW 10.4 mph - N/A   Overcast
4:57 AM 26.6 °F 16.8 °F 19.4 °F 74% 30.09 in 10.0 mi WSW 10.4 mph - N/A   Overcast
5:51 AM 27.0 °F 17.3 °F 19.9 °F 75% 30.16 in 7.0 mi WSW 10.4 mph - N/A   Overcast
6:51 AM 28.0 °F 18.1 °F 21.9 °F 78% 30.17 in 8.0 mi WSW 11.5 mph - N/A   Overcast
7:51 AM 28.9 °F 21.1 °F 23.0 °F 78% 30.18 in 5.0 mi West 8.1 mph - N/A   Haze
8:40 AM 30.2 °F 20.2 °F 23.0 °F 75% 30.14 in 6.0 mi West 12.7 mph - N/A   Haze
8:51 AM 30.0 °F 19.5 °F 23.0 °F 75% 30.19 in 7.0 mi West 13.8 mph - N/A   Overcast
9:51 AM 30.0 °F 20.0 °F 21.9 °F 72% 30.22 in 8.0 mi West 12.7 mph - N/A   Overcast
10:51 AM 30.0 °F 21.1 °F 19.0 °F 64% 30.22 in 10.0 mi West 10.4 mph - N/A   Overcast
11:51 AM 28.9 °F 19.8 °F 19.9 °F 69% 30.21 in 10.0 mi West 10.4 mph - N/A   Overcast
12:51 PM 28.0 °F 17.5 °F 19.0 °F 69% 30.22 in 10.0 mi West 12.7 mph - N/A   Overcast
1:51 PM 28.9 °F 19.8 °F 19.0 °F 67% 30.22 in 9.0 mi West 10.4 mph - 0.00 in Snow Light Snow
2:51 PM 28.4 °F 18.5 °F 19.4 °F 69% 30.19 in 10.0 mi West 11.5 mph - N/A Snow Light Snow
3:51 PM 28.9 °F 19.2 °F 18.0 °F 64% 30.25 in 10.0 mi West 11.5 mph - 0.00 in   Overcast
4:51 PM 28.0 °F 17.0 °F 17.1 °F 63% 30.27 in 10.0 mi West 13.8 mph - N/A   Overcast
5:51 PM 28.0 °F 17.0 °F 17.1 °F 63% 30.28 in 10.0 mi WSW 13.8 mph - N/A   Overcast
6:51 PM 27.0 °F 16.7 °F 17.1 °F 66% 30.29 in 10.0 mi West 11.5 mph 18.4 mph N/A   Overcast
7:51 PM 26.1 °F 16.2 °F 16.0 °F 66% 30.30 in 10.0 mi West 10.4 mph - 0.00 in   Mostly Cloudy
8:51 PM 23.0 °F 11.1 °F 15.1 °F 72% 30.32 in 10.0 mi West 12.7 mph 18.4 mph N/A   Clear
9:51 PM 21.0 °F 9.3 °F 15.1 °F 78% 30.31 in 10.0 mi WSW 11.5 mph - N/A   Clear
10:51 PM 19.9 °F 9.3 °F 14.0 °F 78% 30.31 in 10.0 mi WSW 9.2 mph - N/A   Clear
11:51 PM 19.0 °F 6.8 °F 12.9 °F 77% 30.30 in 10.0 mi West 11.5 mph 19.6 mph N/A   Clear